sat.trackr.live / text

‹ back to catalog

STARLINK-32113

NORAD 60282 · 2024-132E

PAYLOAD ACTIVE UNKNOWN

§ Identity

Operator
Country
US
Launch date
2024-07-28
Launch site
AFETR
Launch vehicle
Mass (kg)
RCS (m²)

Purposes: comms

External: N2YO · Heavens-Above · Gunter

§ Orbital elements

Epoch: 2026-05-25T01:15:45.453024Z

Period
94.11 min
Inclination
53.1605°
Eccentricity
0.0001134
Mean motion
15.30195126 rev/d
Perigee alt
474.5 km
Apogee alt
476.0 km
Semi-major
6,853.4 km
B*
1.5237e-5
RAAN
57.6085°
Arg perigee
86.2205°
Mean anomaly
273.8926°
Rev number
10,325

§ Raw data

STARLINK-321131 60282U 24132E   26145.05260941  .00000092  00000+0  15237-4 0  99972 60282  53.1605  57.6085 0001134  86.2205 273.8926 15.30195126103254

JSON: /api/v1/satellites/60282 · /tle

For live sub-satellite position, see the globe view (requires WebGL).

§ Visibility from observer

Set your observer location to see the next 7 days of passes ≥ 10°. The values pass through the URL so the page stays shareable.

No JS? Fill the form by hand. The geolocation button needs JavaScript.